,,Stat6,,Stat2,,Stat8,,Stat9,,Stat10,,Wind1,,Wind1,
time,status,PA1M_AVG,status,PR1M_SUM,status,RH1M_AVG,status,SR1M_AVG,status,TA1M_AVG,status,W1dAve1m,status,W1sAve1m,
2009-03-26, 00:00:00,VALID,918.314,VALID,0,VALID,100,VALID,0.0339617,VALID,19.5308,VALID,41,VALID,0,
2009-03-26, 00:01:00,VALID,918.312,VALID,0,VALID,100,VALID,0.0169808,VALID,19.5371,VALID,39,VALID,0,
2009-03-26, 00:02:00,VALID,918.313,VALID,0,VALID,100,VALID,-0.0169808,VALID,19.5503,VALID,39,VALID,0,
2009-03-26, 00:03:00,VALID,918.318,VALID,0,VALID,100,VALID,0.0169808,VALID,19.5506,VALID,39,VALID,0,
2009-03-26, 00:04:00,VALID,918.315,VALID,0,VALID,100,VALID,0,VALID,19.5441,VALID,96,VALID,0,
2009-03-26, 00:05:00,VALID,918.315,VALID,0,VALID,100,VALID,0,VALID,19.5308,VALID,118,VALID,0,
2009-03-26, 00:06:00,VALID,918.331,VALID,0,VALID,100,VALID,0,VALID,19.5573,VALID,119,VALID,0,
2009-03-26, 00:07:00,VALID,918.359,VALID,0,VALID,100,VALID,-0.0169808,VALID,19.5763,VALID,136,VALID,0,
2009-03-26, 00:08:00,VALID,918.382,VALID,0,VALID,100,VALID,0.0339617,VALID,19.5892,VALID,158,VALID,0,
2009-03-26, 00:09:00,VALID,918.408,VALID,0,VALID,100,VALID,0,VALID,19.6249,VALID,161,VALID,0,
2009-03-26, 00:10:00,VALID,918.402,VALID,0,VALID,100,VALID,0.0169808,VALID,19.6409,VALID,166,VALID,0.00130208,
2009-03-26, 00:11:00,VALID,918.418,VALID,0,VALID,100,VALID,0.0679233,VALID,19.6506,VALID,178,VALID,0,
2009-03-26, 00:12:00,VALID,918.424,VALID,0,VALID,100,VALID,0.0169808,VALID,19.6606,VALID,178,VALID,0,
2009-03-26, 00:13:00,VALID,918.447,VALID,0,VALID,100,VALID,0,VALID,19.6639,VALID,178,VALID,0,
2009-03-26, 00:14:00,VALID,918.469,VALID,0,VALID,100,VALID,0,VALID,19.6639,VALID,178,VALID,0,
2009-03-26, 00:15:00,VALID,918.489,VALID,0,VALID,100,VALID,0.0169808,VALID,19.6506,VALID,178,VALID,0,
2009-03-26, 00:16:00,VALID,918.51,VALID,0,VALID,100,VALID,0.0169808,VALID,19.6479,VALID,178,VALID,0,
2009-03-26, 00:17:00,VALID,918.526,VALID,0,VALID,100,VALID,0.0169808,VALID,19.6479,VALID,231,VALID,0,
2009-03-26, 00:18:00,VALID,918.535,VALID,0,VALID,100,VALID,0,VALID,19.6117,VALID,232,VALID,0,
2009-03-26, 00:19:00,VALID,918.547,VALID,0,VALID,100,VALID,0.0169808,VALID,19.5695,VALID,235,VALID,0,
2009-03-26, 00:20:00,VALID,918.536,VALID,0,VALID,100,VALID,0.0169808,VALID,19.5698,VALID,248,VALID,0,
2009-03-26, 00:21:00,VALID,918.536,VALID,0,VALID,100,VALID,0,VALID,19.5598,VALID,249,VALID,0,
2009-03-26, 00:22:00,VALID,918.535,VALID,0,VALID,100,VALID,0,VALID,19.5598,VALID,249,VALID,0,
2009-03-26, 00:23:00,VALID,918.51,VALID,0,VALID,100,VALID,-0.0169808,VALID,19.5633,VALID,249,VALID,0,
2009-03-26, 00:24:00,VALID,918.496,VALID,0,VALID,100,VALID,-0.0169808,VALID,19.5763,VALID,249,VALID,0,
2009-03-26, 00:25:00,VALID,918.457,VALID,0,VALID,100,VALID,0,VALID,19.5793,VALID,249,VALID,0,
2009-03-26, 00:26:00,VALID,918.423,VALID,0,VALID,100,VALID,-0.0339617,VALID,19.573,VALID,197,VALID,0,
2009-03-26, 00:27:00,VALID,918.38,VALID,0,VALID,100,VALID,-0.0509425,VALID,19.5476,VALID,104,VALID,0,
2009-03-26, 00:28:00,VALID,918.34,VALID,0,VALID,100,VALID,-0.0679233,VALID,19.4896,VALID,96,VALID,0,
2009-03-26, 00:29:00,VALID,918.323,VALID,0,VALID,100,VALID,-0.0509425,VALID,19.4729,VALID,92,VALID,0,
2009-03-26, 00:30:00,VALID,918.298,VALID,0,VALID,100,VALID,-0.0509425,VALID,19.447,VALID,83,VALID,0,
2009-03-26, 00:31:00,VALID,918.273,VALID,0,VALID,100,VALID,-0.0509425,VALID,19.437,VALID,86,VALID,0,
2009-03-26, 00:32:00,VALID,918.257,VALID,0,VALID,100,VALID,-0.0339617,VALID,19.4041,VALID,81,VALID,0,
2009-03-26, 00:33:00,VALID,918.231,VALID,0,VALID,100,VALID,-0.0169808,VALID,19.4178,VALID,101,VALID,0,
2009-03-26, 00:34:00,VALID,918.209,VALID,0,VALID,100,VALID,-0.0169808,VALID,19.4143,VALID,85,VALID,0,
2009-03-26, 00:35:00,VALID,918.163,VALID,0,VALID,100,VALID,-0.0169808,VALID,19.3846,VALID,80,VALID,0,
2009-03-26, 00:36:00,VALID,918.144,VALID,0,VALID,100,VALID,-0.0339617,VALID,19.3818,VALID,98,VALID,0,
2009-03-26, 00:37:00,VALID,918.107,VALID,0,VALID,100,VALID,-0.0339617,VALID,19.3651,VALID,101,VALID,0,
2009-03-26, 00:38:00,VALID,918.066,VALID,0,VALID,100,VALID,-0.0169808,VALID,19.3524,VALID,101,VALID,0,
2009-03-26, 00:39:00,VALID,918.032,VALID,0,VALID,100,VALID,-0.0339617,VALID,19.3394,VALID,90,VALID,0,
2009-03-26, 00:40:00,VALID,918.031,VALID,0,VALID,100,VALID,-0.0339617,VALID,19.3302,VALID,79,VALID,0,
2009-03-26, 00:41:00,VALID,918.019,VALID,0,VALID,100,VALID,-0.0849042,VALID,19.32,VALID,74,VALID,0,
2009-03-26, 00:42:00,VALID,918.03,VALID,0,VALID,100,VALID,-0.0679233,VALID,19.3464,VALID,54,VALID,0,
2009-03-26, 00:43:00,VALID,918.025,VALID,0,VALID,100,VALID,-0.0509425,VALID,19.3696,VALID,53,VALID,0,
2009-03-26, 00:44:00,VALID,918.043,VALID,0,VALID,100,VALID,-0.0509425,VALID,19.3594,VALID,53,VALID,0,
2009-03-26, 00:45:00,VALID,918.045,VALID,0,VALID,100,VALID,-0.0339617,VALID,19.3758,VALID,53,VALID,0,
2009-03-26, 00:46:00,VALID,918.037,VALID,0,VALID,100,VALID,-0.0339617,VALID,19.3684,VALID,56,VALID,0,
2009-03-26, 00:47:00,VALID,918.02,VALID,0,VALID,100,VALID,-0.0169808,VALID,19.3392,VALID,74,VALID,0,
2009-03-26, 00:48:00,VALID,918.013,VALID,0,VALID,100,VALID,-0.0509425,VALID,19.3364,VALID,94,VALID,0,
2009-03-26, 00:49:00,VALID,918.005,VALID,0,VALID,100,VALID,-0.0339617,VALID,19.3204,VALID,108,VALID,0,
2009-03-26, 00:50:00,VALID,917.982,VALID,0,VALID,100,VALID,-0.0339617,VALID,19.3035,VALID,118,VALID,0,
2009-03-26, 00:51:00,VALID,917.962,VALID,0,VALID,100,VALID,-0.0169808,VALID,19.3037,VALID,124,VALID,0,
2009-03-26, 00:52:00,VALID,917.934,VALID,0,VALID,100,VALID,-0.0169808,VALID,19.2972,VALID,121,VALID,0,
2009-03-26, 00:53:00,VALID,917.897,VALID,0,VALID,100,VALID,-0.0169808,VALID,19.3142,VALID,117,VALID,0,
2009-03-26, 00:54:00,VALID,917.868,VALID,0,VALID,100,VALID,-0.0509425,VALID,19.3269,VALID,108,VALID,0,
2009-03-26, 00:55:00,VALID,917.837,VALID,0,VALID,100,VALID,-0.101885,VALID,19.3601,VALID,109,VALID,0,
2009-03-26, 00:56:00,VALID,917.801,VALID,0,VALID,100,VALID,-0.0169808,VALID,19.3556,VALID,120,VALID,0,
2009-03-26, 00:57:00,VALID,917.75,VALID,0,VALID,100,VALID,-0.0509425,VALID,19.3821,VALID,121,VALID,0,
2009-03-26, 00:58:00,VALID,917.728,VALID,0,VALID,100,VALID,-0.101885,VALID,19.402,VALID,121,VALID,0,
2009-03-26, 00:59:00,VALID,917.7,VALID,0,VALID,100,VALID,-0.0849042,VALID,19.3886,VALID,121,VALID,0,
2009-03-26, 01:00:00,VALID,917.684,VALID,0,VALID,100,VALID,-0.0509425,VALID,19.3823,VALID,121,VALID,0,
2009-03-26, 01:01:00,VALID,917.672,VALID,0,VALID,100,VALID,-0.0509425,VALID,19.3818,VALID,121,VALID,0,
2009-03-26, 01:02:00,VALID,917.679,VALID,0,VALID,100,VALID,-0.0509425,VALID,19.3943,VALID,121,VALID,0,
2009-03-26, 01:03:00,VALID,917.692,VALID,0,VALID,100,VALID,-0.0849042,VALID,19.4375,VALID,121,VALID,0,
2009-03-26, 01:04:00,VALID,917.696,VALID,0,VALID,100,VALID,-0.0679233,VALID,19.4435,VALID,121,VALID,0,
2009-03-26, 01:05:00,VALID,917.697,VALID,0,VALID,100,VALID,-0.0169808,VALID,19.4824,VALID,121,VALID,0,
2009-03-26, 01:06:00,VALID,917.703,VALID,0,VALID,100,VALID,-0.0339617,VALID,19.5084,VALID,129,VALID,0,
2009-03-26, 01:07:00,VALID,917.693,VALID,0,VALID,100,VALID,-0.0509425,VALID,19.5144,VALID,170,VALID,0,
2009-03-26, 01:08:00,VALID,917.675,VALID,0,VALID,100,VALID,-0.0509425,VALID,19.5376,VALID,170,VALID,0,
2009-03-26, 01:09:00,VALID,917.648,VALID,0,VALID,100,VALID,-0.0849042,VALID,19.5503,VALID,170,VALID,0,
2009-03-26, 01:10:00,VALID,917.605,VALID,0,VALID,100,VALID,0,VALID,19.5698,VALID,170,VALID,0,
2009-03-26, 01:11:00,VALID,917.574,VALID,0,VALID,100,VALID,0,VALID,19.579,VALID,170,VALID,0,
2009-03-26, 01:12:00,VALID,917.542,VALID,0,VALID,100,VALID,-0.0169808,VALID,19.6124,VALID,160,VALID,0,
2009-03-26, 01:13:00,VALID,917.52,VALID,0,VALID,100,VALID,-0.0169808,VALID,19.5665,VALID,151,VALID,0,
2009-03-26, 01:14:00,VALID,917.49,VALID,0,VALID,100,VALID,-0.0169808,VALID,19.5346,VALID,146,VALID,0,
2009-03-26, 01:15:00,VALID,917.441,VALID,0,VALID,100,VALID,0,VALID,19.4951,VALID,146,VALID,0,
2009-03-26, 01:16:00,VALID,917.423,VALID,0,VALID,100,VALID,-0.0339617,VALID,19.4889,VALID,146,VALID,0,
2009-03-26, 01:17:00,VALID,917.417,VALID,0,VALID,100,VALID,0,VALID,19.4692,VALID,149,VALID,0,
2009-03-26, 01:18:00,VALID,917.434,VALID,0,VALID,100,VALID,-0.0169808,VALID,19.4857,VALID,148,VALID,0,
2009-03-26, 01:19:00,VALID,917.44,VALID,0,VALID,100,VALID,-0.0339617,VALID,19.4762,VALID,146,VALID,0,
2009-03-26, 01:20:00,VALID,917.449,VALID,0,VALID,100,VALID,-0.0339617,VALID,19.4689,VALID,149,VALID,0,
2009-03-26, 01:21:00,VALID,917.463,VALID,0,VALID,100,VALID,-0.0169808,VALID,19.4789,VALID,149,VALID,0.0263889,
2009-03-26, 01:22:00,VALID,917.461,VALID,0,VALID,100,VALID,-0.0509425,VALID,19.4787,VALID,170,VALID,0.100836,
2009-03-26, 01:23:00,VALID,917.469,VALID,0,VALID,100,VALID,-0.0339617,VALID,19.4884,VALID,178,VALID,0,
2009-03-26, 01:24:00,VALID,917.474,VALID,0,VALID,100,VALID,0,VALID,19.4917,VALID,190,VALID,0.00109012,
2009-03-26, 01:25:00,VALID,917.459,VALID,0,VALID,100,VALID,0.0679233,VALID,19.4947,VALID,178,VALID,0,
2009-03-26, 01:26:00,VALID,917.447,VALID,0,VALID,100,VALID,0,VALID,19.4882,VALID,173,VALID,0.0658736,
2009-03-26, 01:27:00,VALID,917.43,VALID,0,VALID,100,VALID,0.0339617,VALID,19.4884,VALID,167,VALID,0.0105469,
2009-03-26, 01:28:00,VALID,917.403,VALID,0,VALID,100,VALID,0,VALID,19.4722,VALID,174,VALID,0.0710938,
2009-03-26, 01:29:00,VALID,917.385,VALID,0,VALID,100,VALID,0.0339617,VALID,19.459,VALID,175,VALID,0.0994792,
2009-03-26, 01:30:00,VALID,917.367,VALID,0,VALID,100,VALID,0,VALID,19.4397,VALID,167,VALID,0.0634301,
2009-03-26, 01:31:00,VALID,917.343,VALID,0,VALID,100,VALID,0,VALID,19.4235,VALID,149,VALID,0,
2009-03-26, 01:32:00,VALID,917.313,VALID,0,VALID,100,VALID,0,VALID,19.3841,VALID,138,VALID,0.00117188,
2009-03-26, 01:33:00,VALID,917.305,VALID,0,VALID,100,VALID,0.0509425,VALID,19.3646,VALID,134,VALID,0,
2009-03-26, 01:34:00,VALID,917.284,VALID,0,VALID,100,VALID,0.0169808,VALID,19.3714,VALID,129,VALID,0,
2009-03-26, 01:35:00,VALID,917.273,VALID,0,VALID,100,VALID,0.0169808,VALID,19.3614,VALID,124,VALID,0,
2009-03-26, 01:36:00,VALID,917.259,VALID,0,VALID,100,VALID,0.0169808,VALID,19.3649,VALID,122,VALID,0,
2009-03-26, 01:37:00,VALID,917.236,VALID,0,VALID,100,VALID,0,VALID,19.3586,VALID,122,VALID,0,
2009-03-26, 01:38:00,VALID,917.21,VALID,0,VALID,100,VALID,-0.0339617,VALID,19.3654,VALID,122,VALID,0,
2009-03-26, 01:39:00,VALID,917.2,VALID,0,VALID,100,VALID,-0.0169808,VALID,19.3986,VALID,122,VALID,0,
2009-03-26, 01:40:00,VALID,917.187,VALID,0,VALID,100,VALID,-0.0679233,VALID,19.425,VALID,122,VALID,0,
2009-03-26, 01:41:00,VALID,917.192,VALID,0,VALID,100,VALID,-0.101885,VALID,19.4537,VALID,122,VALID,0,
2009-03-26, 01:42:00,VALID,917.197,VALID,0,VALID,100,VALID,-0.0339617,VALID,19.4994,VALID,154,VALID,0,
2009-03-26, 01:43:00,VALID,917.206,VALID,0,VALID,100,VALID,-0.101885,VALID,19.551,VALID,163,VALID,0,
2009-03-26, 01:44:00,VALID,917.198,VALID,0,VALID,100,VALID,-0.101885,VALID,19.6197,VALID,156,VALID,0,
2009-03-26, 01:45:00,VALID,917.205,VALID,0,VALID,100,VALID,-0.0849042,VALID,19.6391,VALID,151,VALID,0,
2009-03-26, 01:46:00,VALID,917.193,VALID,0,VALID,100,VALID,-0.101885,VALID,19.6454,VALID,153,VALID,0.0261549,
2009-03-26, 01:47:00,VALID,917.184,VALID,0,VALID,100,VALID,-0.118866,VALID,19.6781,VALID,151,VALID,0.0101207,
2009-03-26, 01:48:00,VALID,917.175,VALID,0,VALID,100,VALID,-0.101885,VALID,19.6908,VALID,148,VALID,0.0275213,
2009-03-26, 01:49:00,VALID,917.174,VALID,0,VALID,100,VALID,-0.0849042,VALID,19.6846,VALID,142,VALID,0.124442,
2009-03-26, 01:50:00,VALID,917.173,VALID,0,VALID,100,VALID,-0.0679233,VALID,19.6421,VALID,138,VALID,0,
2009-03-26, 01:51:00,VALID,917.198,VALID,0,VALID,100,VALID,-0.0509425,VALID,19.6067,VALID,131,VALID,0.00133384,
2009-03-26, 01:52:00,VALID,917.222,VALID,0,VALID,100,VALID,-0.0849042,VALID,19.5738,VALID,118,VALID,0,
2009-03-26, 01:53:00,VALID,917.259,VALID,0,VALID,100,VALID,-0.0509425,VALID,19.5506,VALID,117,VALID,0.00114329,
2009-03-26, 01:54:00,VALID,917.295,VALID,0,VALID,100,VALID,0.0169808,VALID,19.5241,VALID,112,VALID,0,
2009-03-26, 01:55:00,VALID,917.336,VALID,0,VALID,100,VALID,0,VALID,19.4647,VALID,102,VALID,0,
2009-03-26, 01:56:00,VALID,917.36,VALID,0,VALID,100,VALID,0,VALID,19.42,VALID,93,VALID,0,
2009-03-26, 01:57:00,VALID,917.383,VALID,0,VALID,100,VALID,0.0509425,VALID,19.3814,VALID,96,VALID,0,
2009-03-26, 01:58:00,VALID,917.378,VALID,0,VALID,100,VALID,0.0339617,VALID,19.3354,VALID,108,VALID,0.0243902,
2009-03-26, 01:59:00,VALID,917.37,VALID,0,VALID,100,VALID,0.0169808,VALID,19.3032,VALID,116,VALID,0.0592296,
2009-03-26, 02:00:00,VALID,917.359,VALID,0,VALID,100,VALID,0,VALID,19.2903,VALID,123,VALID,0.046875,
2009-03-26, 02:01:00,VALID,917.357,VALID,0,VALID,100,VALID,-0.0849042,VALID,19.2917,VALID,131,VALID,0.0574653,
2009-03-26, 02:02:00,VALID,917.351,VALID,0,VALID,100,VALID,-0.0679233,VALID,19.275,VALID,127,VALID,0.00228659,
2009-03-26, 02:03:00,VALID,917.357,VALID,0,VALID,100,VALID,-0.0849042,VALID,19.2498,VALID,111,VALID,0,
2009-03-26, 02:04:00,VALID,917.363,VALID,0,VALID,100,VALID,-0.101885,VALID,19.2333,VALID,103,VALID,0.0323661,
2009-03-26, 02:05:00,VALID,917.364,VALID,0,VALID,100,VALID,-0.101885,VALID,19.2104,VALID,106,VALID,0,
2009-03-26, 02:06:00,VALID,917.366,VALID,0,VALID,100,VALID,-0.101885,VALID,19.2041,VALID,122,VALID,0,
2009-03-26, 02:07:00,VALID,917.365,VALID,0,VALID,100,VALID,-0.118866,VALID,19.2074,VALID,127,VALID,0.0010016,
2009-03-26, 02:08:00,VALID,917.356,VALID,0,VALID,100,VALID,-0.0509425,VALID,19.1939,VALID,122,VALID,0,
2009-03-26, 02:09:00,VALID,917.357,VALID,0,VALID,100,VALID,-0.0339617,VALID,19.1997,VALID,111,VALID,0,
2009-03-26, 02:10:00,VALID,917.359,VALID,0,VALID,100,VALID,0,VALID,19.2099,VALID,111,VALID,0,
2009-03-26, 02:11:00,VALID,917.365,VALID,0,VALID,100,VALID,-0.0509425,VALID,19.2127,VALID,111,VALID,0,
2009-03-26, 02:12:00,VALID,917.36,VALID,0,VALID,100,VALID,0,VALID,19.2294,VALID,111,VALID,0,
2009-03-26, 02:13:00,VALID,917.347,VALID,0,VALID,100,VALID,-0.0339617,VALID,19.2391,VALID,111,VALID,0,
2009-03-26, 02:14:00,VALID,917.325,VALID,0,VALID,100,VALID,-0.0169808,VALID,19.2518,VALID,111,VALID,0,
2009-03-26, 02:15:00,VALID,917.293,VALID,0,VALID,100,VALID,-0.0339617,VALID,19.2583,VALID,111,VALID,0,
2009-03-26, 02:16:00,VALID,917.269,VALID,0,VALID,100,VALID,-0.0169808,VALID,19.2678,VALID,111,VALID,0,
2009-03-26, 02:17:00,VALID,917.241,VALID,0,VALID,100,VALID,0,VALID,19.2773,VALID,111,VALID,0,
2009-03-26, 02:18:00,VALID,917.22,VALID,0,VALID,100,VALID,0.0169808,VALID,19.271,VALID,111,VALID,0,
2009-03-26, 02:19:00,VALID,917.213,VALID,0,VALID,100,VALID,0.0169808,VALID,19.2643,VALID,111,VALID,0,
2009-03-26, 02:20:00,VALID,917.196,VALID,0,VALID,100,VALID,0.0169808,VALID,19.2483,VALID,111,VALID,0,
2009-03-26, 02:21:00,VALID,917.183,VALID,0,VALID,100,VALID,0.0339617,VALID,19.2516,VALID,111,VALID,0,
2009-03-26, 02:22:00,VALID,917.165,VALID,0,VALID,100,VALID,0.0169808,VALID,19.2521,VALID,111,VALID,0,
2009-03-26, 02:23:00,VALID,917.152,VALID,0,VALID,100,VALID,-0.0509425,VALID,19.2623,VALID,111,VALID,0,
2009-03-26, 02:24:00,VALID,917.156,VALID,0,VALID,100,VALID,-0.0849042,VALID,19.2822,VALID,111,VALID,0,
2009-03-26, 02:25:00,VALID,917.143,VALID,0,VALID,100,VALID,-0.101885,VALID,19.2985,VALID,111,VALID,0,
2009-03-26, 02:26:00,VALID,917.13,VALID,0,VALID,100,VALID,-0.118866,VALID,19.3152,VALID,111,VALID,0,
2009-03-26, 02:27:00,VALID,917.119,VALID,0,VALID,100,VALID,-0.0849042,VALID,19.3312,VALID,111,VALID,0,
2009-03-26, 02:28:00,VALID,917.108,VALID,0,VALID,100,VALID,-0.0849042,VALID,19.3374,VALID,111,VALID,0,
2009-03-26, 02:29:00,VALID,917.098,VALID,0,VALID,100,VALID,-0.101885,VALID,19.3342,VALID,97,VALID,0,
2009-03-26, 02:30:00,VALID,917.079,VALID,0,VALID,100,VALID,-0.101885,VALID,19.308,VALID,52,VALID,0,
2009-03-26, 02:31:00,VALID,917.059,VALID,0,VALID,100,VALID,-0.0849042,VALID,19.2628,VALID,52,VALID,0,
2009-03-26, 02:32:00,VALID,917.031,VALID,0,VALID,100,VALID,-0.101885,VALID,19.2241,VALID,52,VALID,0,
2009-03-26, 02:33:00,VALID,917.006,VALID,0,VALID,100,VALID,-0.118866,VALID,19.2011,VALID,58,VALID,0,
2009-03-26, 02:34:00,VALID,916.985,VALID,0,VALID,100,VALID,-0.101885,VALID,19.1914,VALID,61,VALID,0,
2009-03-26, 02:35:00,VALID,916.955,VALID,0,VALID,100,VALID,-0.101885,VALID,19.1854,VALID,64,VALID,0,
2009-03-26, 02:36:00,VALID,916.925,VALID,0,VALID,100,VALID,-0.118866,VALID,19.1622,VALID,64,VALID,0,
2009-03-26, 02:37:00,VALID,916.897,VALID,0,VALID,100,VALID,-0.101885,VALID,19.149,VALID,64,VALID,0,
2009-03-26, 02:38:00,VALID,916.88,VALID,0,VALID,100,VALID,-0.0509425,VALID,19.142,VALID,64,VALID,0,
2009-03-26, 02:39:00,VALID,916.873,VALID,0,VALID,100,VALID,0.0339617,VALID,19.1153,VALID,48,VALID,0,
2009-03-26, 02:40:00,VALID,916.878,VALID,0,VALID,100,VALID,0,VALID,19.0929,VALID,45,VALID,0,
2009-03-26, 02:41:00,VALID,916.897,VALID,0,VALID,100,VALID,-0.0339617,VALID,19.0861,VALID,28,VALID,0,
2009-03-26, 02:42:00,VALID,916.925,VALID,0,VALID,100,VALID,0.0169808,VALID,19.0951,VALID,27,VALID,0,
2009-03-26, 02:43:00,VALID,916.941,VALID,0,VALID,100,VALID,0.0339617,VALID,19.1346,VALID,22,VALID,0,
2009-03-26, 02:44:00,VALID,916.944,VALID,0,VALID,100,VALID,0,VALID,19.1672,VALID,13,VALID,0,
2009-03-26, 02:45:00,VALID,916.942,VALID,0,VALID,100,VALID,0.0169808,VALID,19.1737,VALID,14,VALID,0,
2009-03-26, 02:46:00,VALID,916.927,VALID,0,VALID,100,VALID,0.0169808,VALID,19.1837,VALID,18,VALID,0.0546875,
2009-03-26, 02:47:00,VALID,916.919,VALID,0,VALID,100,VALID,0.0169808,VALID,19.1735,VALID,22,VALID,0,
2009-03-26, 02:48:00,VALID,916.917,VALID,0,VALID,100,VALID,-0.0169808,VALID,19.1702,VALID,22,VALID,0,
2009-03-26, 02:49:00,VALID,916.915,VALID,0,VALID,100,VALID,0,VALID,19.177,VALID,22,VALID,0,
2009-03-26, 02:50:00,VALID,916.907,VALID,0,VALID,100,VALID,0,VALID,19.1899,VALID,22,VALID,0,
2009-03-26, 02:51:00,VALID,916.905,VALID,0,VALID,100,VALID,0.0339617,VALID,19.2029,VALID,14,VALID,0,
2009-03-26, 02:52:00,VALID,916.904,VALID,0,VALID,100,VALID,0,VALID,19.2194,VALID,5,VALID,0,
2009-03-26, 02:53:00,VALID,916.894,VALID,0,VALID,100,VALID,-0.0169808,VALID,19.2391,VALID,5,VALID,0,
2009-03-26, 02:54:00,VALID,916.906,VALID,0,VALID,100,VALID,0,VALID,19.2548,VALID,5,VALID,0,
2009-03-26, 02:55:00,VALID,916.899,VALID,0,VALID,100,VALID,-0.0169808,VALID,19.2643,VALID,5,VALID,0,
2009-03-26, 02:56:00,VALID,916.886,VALID,0,VALID,100,VALID,0,VALID,19.2613,VALID,5,VALID,0,
2009-03-26, 02:57:00,VALID,916.875,VALID,0,VALID,100,VALID,-0.0339617,VALID,19.2646,VALID,5,VALID,0,
2009-03-26, 02:58:00,VALID,916.858,VALID,0,VALID,100,VALID,-0.0339617,VALID,19.2458,VALID,5,VALID,0,
2009-03-26, 02:59:00,VALID,916.844,VALID,0,VALID,100,VALID,0,VALID,19.2094,VALID,45,VALID,0,
2009-03-26, 03:00:00,VALID,916.837,VALID,0,VALID,100,VALID,-0.0339617,VALID,19.1637,VALID,84,VALID,0,
2009-03-26, 03:01:00,VALID,916.832,VALID,0,VALID,100,VALID,0,VALID,19.138,VALID,104,VALID,0,
2009-03-26, 03:02:00,VALID,916.84,VALID,0,VALID,100,VALID,-0.0169808,VALID,19.1285,VALID,125,VALID,0,
2009-03-26, 03:03:00,VALID,916.821,VALID,0,VALID,100,VALID,0,VALID,19.1283,VALID,136,VALID,0,
2009-03-26, 03:04:00,VALID,916.817,VALID,0,VALID,100,VALID,0,VALID,19.1153,VALID,147,VALID,0,
2009-03-26, 03:05:00,VALID,916.823,VALID,0,VALID,100,VALID,0,VALID,19.1186,VALID,162,VALID,0,
2009-03-26, 03:06:00,VALID,916.824,VALID,0,VALID,100,VALID,0,VALID,19.1251,VALID,170,VALID,0,
2009-03-26, 03:07:00,VALID,916.831,VALID,0,VALID,100,VALID,0.0169808,VALID,19.1316,VALID,174,VALID,0,
2009-03-26, 03:08:00,VALID,916.825,VALID,0,VALID,100,VALID,-0.0169808,VALID,19.1213,VALID,176,VALID,0,
2009-03-26, 03:09:00,VALID,916.84,VALID,0,VALID,100,VALID,0,VALID,19.1443,VALID,179,VALID,0,
2009-03-26, 03:10:00,VALID,916.846,VALID,0,VALID,100,VALID,-0.0169808,VALID,19.151,VALID,183,VALID,0.0326522,
2009-03-26, 03:11:00,VALID,916.826,VALID,0,VALID,100,VALID,-0.0509425,VALID,19.1645,VALID,181,VALID,0,
2009-03-26, 03:12:00,VALID,916.819,VALID,0,VALID,100,VALID,-0.0169808,VALID,19.1745,VALID,167,VALID,0,
2009-03-26, 03:13:00,VALID,916.806,VALID,0,VALID,100,VALID,-0.0339617,VALID,19.1607,VALID,140,VALID,0,
2009-03-26, 03:14:00,VALID,916.772,VALID,0,VALID,100,VALID,-0.0679233,VALID,19.1705,VALID,141,VALID,0,
2009-03-26, 03:15:00,VALID,916.741,VALID,0,VALID,100,VALID,-0.0849042,VALID,19.164,VALID,146,VALID,0,
2009-03-26, 03:16:00,VALID,916.708,VALID,0,VALID,100,VALID,-0.0679233,VALID,19.164,VALID,159,VALID,0.0796131,
2009-03-26, 03:17:00,VALID,916.662,VALID,0,VALID,100,VALID,0,VALID,19.164,VALID,183,VALID,0,
2009-03-26, 03:18:00,VALID,916.632,VALID,0,VALID,100,VALID,-0.0339617,VALID,19.1777,VALID,183,VALID,0,
2009-03-26, 03:19:00,VALID,916.627,VALID,0,VALID,100,VALID,-0.0509425,VALID,19.177,VALID,183,VALID,0,
2009-03-26, 03:20:00,VALID,916.617,VALID,0,VALID,100,VALID,-0.0339617,VALID,19.1902,VALID,183,VALID,0,
2009-03-26, 03:21:00,VALID,916.636,VALID,0,VALID,100,VALID,-0.0169808,VALID,19.177,VALID,183,VALID,0,
2009-03-26, 03:22:00,VALID,916.629,VALID,0,VALID,100,VALID,-0.0509425,VALID,19.161,VALID,181,VALID,0,
2009-03-26, 03:23:00,VALID,916.645,VALID,0,VALID,100,VALID,-0.0679233,VALID,19.161,VALID,181,VALID,0,
2009-03-26, 03:24:00,VALID,916.634,VALID,0,VALID,100,VALID,-0.0679233,VALID,19.164,VALID,181,VALID,0,
2009-03-26, 03:25:00,VALID,916.641,VALID,0,VALID,100,VALID,-0.0509425,VALID,19.1573,VALID,178,VALID,0,
2009-03-26, 03:26:00,VALID,916.603,VALID,0,VALID,100,VALID,-0.0169808,VALID,19.1615,VALID,172,VALID,0,
2009-03-26, 03:27:01,VALID,916.601,VALID,0,VALID,100,VALID,-0.0679233,VALID,19.1645,VALID,168,VALID,0,
2009-03-26, 03:28:01,VALID,916.591,VALID,0,VALID,100,VALID,-0.0339617,VALID,19.1543,VALID,165,VALID,0,
2009-03-26, 03:29:00,VALID,916.602,VALID,0,VALID,100,VALID,-0.0169808,VALID,19.1443,VALID,161,VALID,0,
2009-03-26, 03:30:00,VALID,916.619,VALID,0,VALID,100,VALID,-0.0509425,VALID,19.1443,VALID,150,VALID,0,
2009-03-26, 03:31:01,VALID,916.633,VALID,0,VALID,100,VALID,-0.0509425,VALID,19.151,VALID,146,VALID,0,
2009-03-26, 03:32:00,VALID,916.648,VALID,0,VALID,100,VALID,-0.0339617,VALID,19.158,VALID,146,VALID,0,
2009-03-26, 03:33:01,VALID,916.652,VALID,0,VALID,100,VALID,-0.0339617,VALID,19.1737,VALID,146,VALID,0,
2009-03-26, 03:34:00,VALID,916.663,VALID,0,VALID,100,VALID,-0.0679233,VALID,19.1902,VALID,146,VALID,0,
2009-03-26, 03:35:00,VALID,916.666,VALID,0,VALID,100,VALID,-0.0339617,VALID,19.2129,VALID,146,VALID,0,
2009-03-26, 03:36:00,VALID,916.667,VALID,0,VALID,100,VALID,-0.0509425,VALID,19.2326,VALID,146,VALID,0,
2009-03-26, 03:37:00,VALID,916.665,VALID,0,VALID,100,VALID,-0.0679233,VALID,19.2523,VALID,145,VALID,0,
2009-03-26, 03:38:00,VALID,916.663,VALID,0,VALID,100,VALID,0,VALID,19.2354,VALID,116,VALID,0,
2009-03-26, 03:39:00,VALID,916.651,VALID,0,VALID,100,VALID,0.0339617,VALID,19.2409,VALID,106,VALID,0,
2009-03-26, 03:40:00,VALID,916.659,VALID,0,VALID,100,VALID,0.0339617,VALID,19.2344,VALID,118,VALID,0,
2009-03-26, 03:41:01,VALID,916.654,VALID,0,VALID,100,VALID,0.0339617,VALID,19.2411,VALID,117,VALID,0,
2009-03-26, 03:42:00,VALID,916.645,VALID,0,VALID,100,VALID,0.0339617,VALID,19.2274,VALID,116,VALID,0.0673363,
2009-03-26, 03:43:00,VALID,916.641,VALID,0,VALID,100,VALID,0.0169808,VALID,19.2476,VALID,116,VALID,0.00576637,
2009-03-26, 03:44:01,VALID,916.639,VALID,0,VALID,100,VALID,0.0679233,VALID,19.2436,VALID,118,VALID,0,
2009-03-26, 03:45:00,VALID,916.634,VALID,0,VALID,100,VALID,0.0849042,VALID,19.2536,VALID,125,VALID,0,
2009-03-26, 03:46:00,VALID,916.624,VALID,0,VALID,100,VALID,0.0679233,VALID,19.2696,VALID,128,VALID,0,
2009-03-26, 03:47:00,VALID,916.616,VALID,0,VALID,100,VALID,0.0339617,VALID,19.2534,VALID,126,VALID,0,
2009-03-26, 03:48:00,VALID,916.602,VALID,0,VALID,100,VALID,0.0339617,VALID,19.2534,VALID,112,VALID,0,
2009-03-26, 03:49:01,VALID,916.571,VALID,0,VALID,100,VALID,0.0849042,VALID,19.2404,VALID,110,VALID,0,
2009-03-26, 03:50:01,VALID,916.555,VALID,0,VALID,100,VALID,0.0509425,VALID,19.2501,VALID,111,VALID,0,
2009-03-26, 03:51:00,VALID,916.549,VALID,0,VALID,100,VALID,0.0169808,VALID,19.2571,VALID,97,VALID,0,